Regional Weather Roundup
Issued by NWS Northern Indiana

Home | Current Version | Previous Version | Graphics & Text | Print | Product List | Glossary On
Versions: 1 2 3 4 5 6 7 8 9 10 11 12 13 14 15 16 17 18 19 20 21 22 23 24 25 26 27 28 29 30 31 32 33 34 35 36 37 38 39 40 41 42 43 44 45 46 47 48 49 50
000
ASUS43 KIWX 261510
RWRIWX

KIWX WEATHER ROUNDUP
NATIONAL WEATHER SERVICE NORTHERN INDIANA
1100 AM EDT TUE MAY 26 2015

NOTE: "FAIR" INDICATES FEW OR NO CLOUDS BELOW 12,000 FEET WITH NO
SIGNIFICANT WEATHER AND/OR OBSTRUCTIONS TO VISIBILITY.

* THESE STATIONS ARE NOT UNDER NWS QUALITY CONTROL. THEY ALSO MAY NOT
  REPORT WEATHER SUCH AS PRECIPITATION OR FOG.

INZ001>027-261600-
NORTHERN INDIANA

CITY           SKY/WX    TMP DP  RH WIND       PRES   REMARKS
GARY*          CLOUDY    73  66  78 SE10      29.91F
VALPARAISO     CLOUDY    72  65  78 S13       29.94F
MICHIGAN CITY* CLOUDY    70  63  78 S9G16     29.94F
LAPORTE*       CLOUDY    73  67  80 S9        29.96F
KNOX*          CLOUDY    73  63  68 S13G18    29.95F
SOUTH BEND     CLOUDY    71  65  81 S12       29.97F
ELKHART*       CLOUDY    72  64  78 S8        30.00F
GOSHEN         CLOUDY    72  65  78 S13       30.00F
MONTICELLO*    CLOUDY    73  67  81 S14G21    29.95F
LOGANSPORT*    CLOUDY    77  61  57 S18G24    29.98F
ROCHESTER*     PTSUNNY   75  68  78 S12G20    29.98F
WARSAW*        CLOUDY    73  64  73 S5        30.00F
ANGOLA*        CLOUDY    72  64  78 S8        30.03F
FORT WAYNE     PTSUNNY   78  65  63 S16G22    30.02F
HUNTINGTON*    MOSUNNY   75  63  65 S8        30.01F
PERU/GRISSOM   MOSUNNY   77  66  68 S15       29.97F
MARION*        PTSUNNY   77  61  57 S18G25    30.02F

$$
INZ028>050-261600-
CENTRAL INDIANA

CITY           SKY/WX    TMP DP  RH WIND       PRES   REMARKS
LAFAYETTE      CLOUDY    73  64  73 S13G25    29.94F
KOKOMO*        MOSUNNY   75  64  69 S18G26    29.99F
MUNCIE*        MOSUNNY   78  62  57 S14G24    30.03F
INDIANAPOLIS   MOSUNNY   77  65  66 S17G23    29.98F

$$
MIZ043>046-050>051-056>058-064>065-071>073-077>080-261600-
SOUTHWEST LOWER MICHIGAN

CITY           SKY/WX    TMP DP  RH WIND       PRES   REMARKS
BATTLE CREEK   CLOUDY    71  64  78 SW9       30.03F
BENTON HARBOR  CLOUDY    71  64  78 S10       29.96F
COLDWATER*     CLOUDY    71  64  79 S6        30.03F
HILLSDALE*     CLOUDY    72  67  84 S10       30.06S
HOLLAND        CLOUDY    72  64  76 S13       29.97F
GRAND RAPIDS   CLOUDY    71  64  78 S14       30.00S
KALAMAZOO      CLOUDY    73  64  73 S10       30.00F
STURGIS*       CLOUDY    72  66  83 S9        30.01F
THREE RIVERS*  CLOUDY    72  65  78 S8        30.01F

$$
OHZ001>008-015>018-024>025-261600-
NORTHWEST OHIO

CITY           SKY/WX    TMP DP  RH WIND       PRES   REMARKS
WAUSEON*       CLOUDY    75  66  73 SW14      30.06F
DEFIANCE       PTSUNNY   77  65  66 SW12      30.05F
FINDLAY        PTSUNNY   78  64  61 S18       30.07F
TOLEDO EXPRESS PTSUNNY   77  65  66 SW9       30.06F
TOLEDO METCALF PTSUNNY   77  63  61 SW14      30.07F
LIMA           SUNNY     77  63  61 S15       30.07F

$$
AND FOR LAKE MICHIGAN COASTAL AND OPEN LAKE BUOY OBSERVATIONS

STATION/POSITION TEMP    WIND        PRES    VSBY  WAVE
                 AIR SEA DIR/SP/G                  HT/PER
                 (F)     (DEG/KT/KT) (MB)    (MI)  (FT/S)
CALUMET HARBOR    72     160/  8/ 16   N/A
MICHIGAN CITY     70     140/ 16/ 21   N/A
BURNS HARBOR      73     170/ 12/ 23 1013.9S
SAINT JOSEPH      72     160/  3/  8 1015.2S
SOUTH LAKE BUOY   47 38  150/ 12/ 14 1014.0F         1/ 3
4 MI NW BRIDGMAN  64 55  200/ 12/ 14   N/A           1/ 2
MICHIGAN CITY     65 52  180/ 10/ 14   N/A           1/ 2
SAINT JOSEPH CG                      1014.1      6   1

$$
&&


USA.gov is the U.S. government's official web portal to all federal, state and local government web resources and services.